Regional Weather Roundup
Issued by NWS

Home | Current Version | Previous Version | Text Only | Print | Product List | Glossary On
Versions: 1 2 3 4 5 6 7 8 9 10 11 12 13 14 15 16 17 18 19 20 21 22 23 24 25 26 27 28 29 30 31 32 33 34 35 36 37 38 39 40 41 42 43 44 45 46 47 48 49 50
000
ASUS43 KFSD 071610
RWRSD

WEATHER ROUNDUP FOR SOUTH DAKOTA
NATIONAL WEATHER SERVICE SIOUX FALLS SD
1100 AM CDT TUE JUL 07 2015

NOTE: "FAIR" INDICATES FEW OR NO CLOUDS BELOW 12,000 FEET WITH NO
SIGNIFICANT WEATHER AND/OR OBSTRUCTIONS TO VISIBILITY.


SDZ001>005-009-010-012>017-071700-
NORTHWEST AND NORTH CENTRAL SOUTH DAKOTA

CITY           SKY/WX    TMP DP  RH WIND       PRES   REMARKS
BUFFALO          N/A     71  57  61 SE13      30.03F
FAITH            N/A     67  55  65 SE16      30.12F
MOBRIDGE       SUNNY     68  54  60 SE16      30.15F
$$

SDZ012>016-024>037-041>051-057-063-072>074-071700-
SOUTHWEST AND SOUTH CENTRAL SOUTH DAKOTA

CITY           SKY/WX    TMP DP  RH WIND       PRES   REMARKS
RAPID CTY ARPT MOSUNNY   70  58  65 S13       30.13F
PIERRE         SUNNY     67  56  67 SE16      30.16F
CUSTER         CLOUDY    60  52  74 SW6       30.22F HAZE
ELLSWORTH AFB  MOSUNNY   69  59  68 S16       30.12F
PHILIP         MOSUNNY   73  58  59 SE8       30.13F
PINE RIDGE     CLOUDY    69  56  62 S15G21    30.17F
SPEARFISH      FAIR      68  57  68 NE9       30.13F
WINNER         FAIR      70  56  61 SE14      30.19F HAZE
$$

SDZ004>011-016>023-039-040-071700-
NORTHEAST SOUTH DAKOTA

CITY           SKY/WX    TMP DP  RH WIND       PRES   REMARKS
ABERDEEN       SUNNY     64  48  56 SE7       30.20F
WATERTOWN      SUNNY     61  43  51 SE7       30.21S
BROOKINGS      SUNNY     59  45  58 NE10G16   30.23S
SISSETON         N/A     64  44  48 SE7       30.20F
$$

SDZ017-020-022-023-036>040-048>070-071700-
SOUTHEAST SOUTH DAKOTA

CITY           SKY/WX    TMP DP  RH WIND       PRES   REMARKS
SIOUX FALLS    MOSUNNY   62  49  62 NE13G21   30.21F
HURON          SUNNY     63  48  58 E5        30.21S
CHAMBERLAIN    SUNNY     64  53  68 SE10      30.20F
MITCHELL       SUNNY     65  50  58 E8        30.22S
YANKTON        PTSUNNY   63  48  59 E9        30.20F
$$

ABBREVIATIONS USED IN REMARKS
   TC - TEMPERATURE IN CELSIUS
  WCI - WIND CHILL INDEX
   HX - HEAT INDEX
  VSB - VISIBILITY



USA.gov is the U.S. government's official web portal to all federal, state and local government web resources and services.